Tracking 19846 objects as of 20-Sep-2019
HD Live streaming from Space Station
objects crossing your sky now

SL-12 R/B(2)

Track SL-12 R/B(2) now!


NORAD ID: 22966
Int'l Code: 1994-002D
Perigee: 35,842.4 km
Apogee: 36,195.8 km
Inclination: 15.2 °
Period: 1,447.6 minutes
Semi major axis: 42390 km
RCS: 2.5179 m2 (large)
Launch date: January 20, 1994
Source: Commonwealth of Independent States (former USSR) (CIS)
Launch site: TYURATAM MISSILE AND SPACE COMPLEX (TTMTR)

Note: This is a ROCKET BODY
aabbcc
Your satellite tracking list
Your tracking list is empty




NASA's NSSDC Master Catalog

Two Line Element Set (TLE):
1 22966U 94002D   19262.05809050 -.00000208  00000-0  00000+0 0  9997
2 22966  15.2132   3.9122 0041680  79.3138 285.5355  0.99473179 92562
Source of the keplerian elements: AFSPC